,,Stat5,,Stat1,,Stat2,,Stat3,,Stat4,,Wind1,,Wind1,
time,status,PA1M_AVG,status,PR1M_SUM,status,RH1M_AVG,status,SR1M_AVG,status,TA1M_AVG,status,W1dAve1m,status,W1sAve1m,
2002-11-09, 00:00:01,VALID,918.411,VALID,0,VALID,99.3912,VALID,-0.0679233,VALID,20.7186,VALID,10,VALID,0.516036,
2002-11-09, 00:01:00,VALID,918.411,VALID,0,VALID,99.3772,VALID,-0.0509425,VALID,20.6572,VALID,8,VALID,0.565245,
2002-11-09, 00:02:00,VALID,918.399,VALID,0,VALID,99.381,VALID,-0.0339617,VALID,20.6316,VALID,1,VALID,0.698602,
2002-11-09, 00:03:00,VALID,918.398,VALID,0,VALID,99.395,VALID,-0.0509425,VALID,20.6147,VALID,18,VALID,0.509457,
2002-11-09, 00:04:00,VALID,918.395,VALID,0,VALID,99.4102,VALID,-0.0509425,VALID,20.6736,VALID,30,VALID,0.518555,
2002-11-09, 00:05:00,VALID,918.395,VALID,0,VALID,99.4153,VALID,-0.0339617,VALID,20.7258,VALID,74,VALID,0.172276,
2002-11-09, 00:06:00,VALID,918.375,VALID,0,VALID,99.4153,VALID,-0.0679233,VALID,20.7178,VALID,99,VALID,0.0348395,
2002-11-09, 00:07:00,VALID,918.373,VALID,0,VALID,99.3962,VALID,-0.0509425,VALID,20.6795,VALID,99,VALID,0.0415296,
2002-11-09, 00:08:00,VALID,918.358,VALID,0,VALID,99.4001,VALID,-0.0679233,VALID,20.6634,VALID,98,VALID,0,
2002-11-09, 00:09:00,VALID,918.336,VALID,0,VALID,99.4166,VALID,-0.0679233,VALID,20.6664,VALID,98,VALID,0,
2002-11-09, 00:10:00,VALID,918.326,VALID,0,VALID,99.414,VALID,-0.0679233,VALID,20.6927,VALID,98,VALID,0,
2002-11-09, 00:11:00,VALID,918.333,VALID,0,VALID,99.4306,VALID,-0.0679233,VALID,20.7019,VALID,97,VALID,0.0540865,
2002-11-09, 00:12:00,VALID,918.345,VALID,0,VALID,99.4153,VALID,-0.0509425,VALID,20.7119,VALID,85,VALID,0.392475,
2002-11-09, 00:13:00,VALID,918.368,VALID,0,VALID,99.3886,VALID,-0.0339617,VALID,20.641,VALID,85,VALID,0.423177,
2002-11-09, 00:14:00,VALID,918.392,VALID,0,VALID,99.3861,VALID,-0.0339617,VALID,20.5888,VALID,85,VALID,0.328947,
2002-11-09, 00:15:00,VALID,918.395,VALID,0,VALID,99.4026,VALID,-0.0169808,VALID,20.5764,VALID,85,VALID,0.0078125,
2002-11-09, 00:16:00,VALID,918.384,VALID,0,VALID,99.4064,VALID,-0.0509425,VALID,20.6087,VALID,83,VALID,0.0365234,
2002-11-09, 00:17:00,VALID,918.357,VALID,0,VALID,99.4204,VALID,-0.0169808,VALID,20.6467,VALID,41,VALID,0.242989,
2002-11-09, 00:18:00,VALID,918.337,VALID,0,VALID,99.428,VALID,-0.0339617,VALID,20.6892,VALID,23,VALID,0.404492,
2002-11-09, 00:19:00,VALID,918.322,VALID,0,VALID,99.442,VALID,-0.0509425,VALID,20.6927,VALID,14,VALID,0.306641,
2002-11-09, 00:20:00,VALID,918.324,VALID,0,VALID,99.428,VALID,0.0339617,VALID,20.6715,VALID,14,VALID,0.247889,
2002-11-09, 00:21:00,VALID,918.32,VALID,0,VALID,99.4318,VALID,-0.0509425,VALID,20.683,VALID,14,VALID,0.0641892,
2002-11-09, 00:22:00,VALID,918.321,VALID,0,VALID,99.4382,VALID,-0.0679233,VALID,20.6925,VALID,14,VALID,0.0794922,
2002-11-09, 00:23:00,VALID,918.305,VALID,0,VALID,99.4293,VALID,-0.101885,VALID,20.7089,VALID,14,VALID,0.0196429,
2002-11-09, 00:24:00,VALID,918.276,VALID,0,VALID,99.4433,VALID,-0.0509425,VALID,20.7091,VALID,14,VALID,0.0191406,
2002-11-09, 00:25:00,VALID,918.25,VALID,0,VALID,99.4408,VALID,-0.0339617,VALID,20.6733,VALID,14,VALID,0,
2002-11-09, 00:26:00,VALID,918.234,VALID,0,VALID,99.4369,VALID,-0.0509425,VALID,20.6731,VALID,14,VALID,0.112048,
2002-11-09, 00:27:00,VALID,918.218,VALID,0,VALID,99.4382,VALID,-0.0509425,VALID,20.6736,VALID,14,VALID,0.27097,
2002-11-09, 00:28:00,VALID,918.227,VALID,0,VALID,99.4318,VALID,-0.0509425,VALID,20.6768,VALID,14,VALID,0.452524,
2002-11-09, 00:29:00,VALID,918.219,VALID,0,VALID,99.442,VALID,-0.0339617,VALID,20.6898,VALID,14,VALID,0.418164,
2002-11-09, 00:30:00,VALID,918.238,VALID,0,VALID,99.4382,VALID,-0.0169808,VALID,20.6437,VALID,16,VALID,0.477179,
2002-11-09, 00:31:00,VALID,918.229,VALID,0,VALID,99.4357,VALID,-0.0339617,VALID,20.654,VALID,22,VALID,0.57512,
2002-11-09, 00:32:00,VALID,918.233,VALID,0,VALID,99.4255,VALID,-0.0679233,VALID,20.6634,VALID,22,VALID,0.461939,
2002-11-09, 00:33:00,VALID,918.224,VALID,0,VALID,99.4318,VALID,-0.0509425,VALID,20.6868,VALID,22,VALID,0.427998,
2002-11-09, 00:34:00,VALID,918.221,VALID,0,VALID,99.442,VALID,-0.0679233,VALID,20.6343,VALID,22,VALID,0.576014,
2002-11-09, 00:35:00,VALID,918.219,VALID,0,VALID,99.442,VALID,-0.0679233,VALID,20.6152,VALID,23,VALID,0.490234,
2002-11-09, 00:36:00,VALID,918.217,VALID,0,VALID,99.4496,VALID,-0.0679233,VALID,20.5926,VALID,35,VALID,0.527574,
2002-11-09, 00:37:00,VALID,918.198,VALID,0,VALID,99.4458,VALID,-0.0509425,VALID,20.5501,VALID,43,VALID,0.532689,
2002-11-09, 00:38:00,VALID,918.195,VALID,0,VALID,99.4255,VALID,-0.0509425,VALID,20.5153,VALID,64,VALID,0.504808,
2002-11-09, 00:39:00,VALID,918.18,VALID,0,VALID,99.4153,VALID,-0.0169808,VALID,20.444,VALID,80,VALID,0.644631,
2002-11-09, 00:40:00,VALID,918.168,VALID,0,VALID,99.4051,VALID,-0.0509425,VALID,20.3923,VALID,94,VALID,0.709704,
2002-11-09, 00:41:00,VALID,918.149,VALID,0,VALID,99.4039,VALID,-0.0849042,VALID,20.3535,VALID,96,VALID,0.843941,
2002-11-09, 00:42:00,VALID,918.132,VALID,0,VALID,99.4115,VALID,-0.0169808,VALID,20.318,VALID,95,VALID,0.710938,
2002-11-09, 00:43:00,VALID,918.121,VALID,0,VALID,99.4255,VALID,-0.0169808,VALID,20.322,VALID,80,VALID,0.545608,
2002-11-09, 00:44:00,VALID,918.11,VALID,0,VALID,99.4331,VALID,-0.0509425,VALID,20.2921,VALID,77,VALID,0.58347,
2002-11-09, 00:45:00,VALID,918.086,VALID,0,VALID,99.4471,VALID,-0.0679233,VALID,20.2824,VALID,93,VALID,0.602385,
2002-11-09, 00:46:00,VALID,918.081,VALID,0,VALID,99.4369,VALID,-0.0339617,VALID,20.2496,VALID,104,VALID,0.767228,
2002-11-09, 00:47:00,VALID,918.101,VALID,0,VALID,99.456,VALID,-0.0679233,VALID,20.2477,VALID,117,VALID,0.62315,
2002-11-09, 00:48:00,VALID,918.106,VALID,0,VALID,99.4573,VALID,-0.0679233,VALID,20.231,VALID,109,VALID,0.158512,
2002-11-09, 00:49:00,VALID,918.113,VALID,0,VALID,99.4738,VALID,-0.0679233,VALID,20.2533,VALID,100,VALID,0.132366,
2002-11-09, 00:50:00,VALID,918.102,VALID,0,VALID,99.4738,VALID,0.0339617,VALID,20.2488,VALID,51,VALID,0.332332,
2002-11-09, 00:51:00,VALID,918.091,VALID,0,VALID,99.4891,VALID,0.0509425,VALID,20.2558,VALID,26,VALID,0.237048,
2002-11-09, 00:52:00,VALID,918.085,VALID,0,VALID,99.4929,VALID,0.101885,VALID,20.2553,VALID,27,VALID,0.148003,
2002-11-09, 00:53:00,VALID,918.078,VALID,0,VALID,99.4929,VALID,0.0339617,VALID,20.2652,VALID,27,VALID,0.000205592,
2002-11-09, 00:54:00,VALID,918.06,VALID,0,VALID,99.4942,VALID,0.0509425,VALID,20.2682,VALID,27,VALID,0.172461,
2002-11-09, 00:55:00,VALID,918.051,VALID,0,VALID,99.498,VALID,0.0339617,VALID,20.2717,VALID,27,VALID,0.0285156,
2002-11-09, 00:56:00,VALID,918.029,VALID,0,VALID,99.4954,VALID,0.0679233,VALID,20.2623,VALID,27,VALID,0,
2002-11-09, 00:57:00,VALID,917.989,VALID,0,VALID,99.4802,VALID,0.0509425,VALID,20.2329,VALID,27,VALID,0.0394531,
2002-11-09, 00:58:00,VALID,917.978,VALID,0,VALID,99.4891,VALID,0.0509425,VALID,20.2138,VALID,27,VALID,0.0779297,
2002-11-09, 00:59:00,VALID,917.968,VALID,0,VALID,99.4865,VALID,0.0509425,VALID,20.1907,VALID,27,VALID,0,
2002-11-09, 01:00:00,VALID,917.963,VALID,0,VALID,99.4916,VALID,0.0679233,VALID,20.1745,VALID,27,VALID,0.0282939,
2002-11-09, 01:01:00,VALID,917.952,VALID,0,VALID,99.4903,VALID,0.0509425,VALID,20.188,VALID,27,VALID,0.00253906,
2002-11-09, 01:02:00,VALID,917.933,VALID,0,VALID,99.4878,VALID,0.0339617,VALID,20.1681,VALID,27,VALID,0.0160714,
2002-11-09, 01:03:00,VALID,917.925,VALID,0,VALID,99.484,VALID,0.0679233,VALID,20.1427,VALID,27,VALID,0,
2002-11-09, 01:04:00,VALID,917.91,VALID,0,VALID,99.4814,VALID,0.0509425,VALID,20.1137,VALID,27,VALID,0,
2002-11-09, 01:05:00,VALID,917.911,VALID,0,VALID,99.4814,VALID,-0.0169808,VALID,20.0792,VALID,27,VALID,0,
2002-11-09, 01:06:00,VALID,917.902,VALID,0,VALID,99.4954,VALID,-0.0509425,VALID,20.0826,VALID,27,VALID,0,
2002-11-09, 01:07:00,VALID,917.89,VALID,0,VALID,99.5005,VALID,0,VALID,20.0891,VALID,28,VALID,0.078125,
2002-11-09, 01:08:00,VALID,917.855,VALID,0,VALID,99.5234,VALID,0,VALID,20.1018,VALID,44,VALID,0.0382813,
2002-11-09, 01:09:00,VALID,917.821,VALID,0,VALID,99.5196,VALID,-0.0339617,VALID,20.1211,VALID,44,VALID,0,
2002-11-09, 01:10:00,VALID,917.796,VALID,0,VALID,99.5209,VALID,-0.0169808,VALID,20.1279,VALID,44,VALID,0,
2002-11-09, 01:11:00,VALID,917.757,VALID,0,VALID,99.5361,VALID,0,VALID,20.1435,VALID,44,VALID,0,
2002-11-09, 01:12:00,VALID,917.735,VALID,0,VALID,99.5272,VALID,-0.0849042,VALID,20.2059,VALID,44,VALID,0,
2002-11-09, 01:13:00,VALID,917.728,VALID,0,VALID,99.5298,VALID,-0.0339617,VALID,20.2218,VALID,44,VALID,0,
2002-11-09, 01:14:00,VALID,917.726,VALID,0,VALID,99.5399,VALID,-0.0509425,VALID,20.2571,VALID,44,VALID,0,
2002-11-09, 01:15:00,VALID,917.714,VALID,0,VALID,99.5437,VALID,-0.0509425,VALID,20.2896,VALID,44,VALID,0.0190717,
2002-11-09, 01:16:00,VALID,917.699,VALID,0,VALID,99.531,VALID,0,VALID,20.2961,VALID,44,VALID,0,
2002-11-09, 01:17:00,VALID,917.701,VALID,0,VALID,99.5437,VALID,-0.0849042,VALID,20.2996,VALID,44,VALID,0.0536859,
2002-11-09, 01:18:00,VALID,917.694,VALID,0,VALID,99.5374,VALID,-0.0339617,VALID,20.309,VALID,44,VALID,0,
2002-11-09, 01:19:00,VALID,917.693,VALID,0,VALID,99.5348,VALID,-0.0339617,VALID,20.3088,VALID,64,VALID,0.13014,
2002-11-09, 01:20:00,VALID,917.691,VALID,0,VALID,99.5361,VALID,0.0509425,VALID,20.3005,VALID,76,VALID,0.000190549,
2002-11-09, 01:21:00,VALID,917.688,VALID,0,VALID,99.5323,VALID,0.0849042,VALID,20.2951,VALID,76,VALID,0.111779,
2002-11-09, 01:22:01,VALID,917.673,VALID,0,VALID,99.5374,VALID,0.0679233,VALID,20.2652,VALID,76,VALID,0.0673564,
2002-11-09, 01:23:00,VALID,917.655,VALID,0,VALID,99.5374,VALID,0.0849042,VALID,20.272,VALID,76,VALID,0.0435855,
2002-11-09, 01:24:00,VALID,917.642,VALID,0,VALID,99.5361,VALID,0.0679233,VALID,20.265,VALID,76,VALID,0.0133635,
2002-11-09, 01:25:00,VALID,917.641,VALID,0,VALID,99.5374,VALID,0.0509425,VALID,20.2749,VALID,76,VALID,0,
2002-11-09, 01:26:00,VALID,917.634,VALID,0,VALID,99.5425,VALID,0.101885,VALID,20.272,VALID,81,VALID,0.0910773,
2002-11-09, 01:27:00,VALID,917.634,VALID,0,VALID,99.5412,VALID,0.0339617,VALID,20.2849,VALID,114,VALID,0.196752,
2002-11-09, 01:28:00,VALID,917.625,VALID,0,VALID,99.5425,VALID,0.0849042,VALID,20.3008,VALID,127,VALID,0.257813,
2002-11-09, 01:29:00,VALID,917.608,VALID,0,VALID,99.5399,VALID,0.0849042,VALID,20.2973,VALID,128,VALID,0.0643029,
2002-11-09, 01:30:00,VALID,917.589,VALID,0,VALID,99.5399,VALID,0.0849042,VALID,20.3169,VALID,128,VALID,0.149671,
2002-11-09, 01:31:00,VALID,917.571,VALID,0,VALID,99.5399,VALID,0.101885,VALID,20.3199,VALID,127,VALID,0.0746528,
2002-11-09, 01:32:00,VALID,917.559,VALID,0,VALID,99.5463,VALID,0.0849042,VALID,20.3231,VALID,127,VALID,0.107525,
2002-11-09, 01:33:00,VALID,917.542,VALID,0,VALID,99.545,VALID,0.0679233,VALID,20.3266,VALID,126,VALID,0.108008,
2002-11-09, 01:34:00,VALID,917.509,VALID,0,VALID,99.5412,VALID,0.0509425,VALID,20.3145,VALID,126,VALID,0.0257812,
2002-11-09, 01:35:00,VALID,917.509,VALID,0,VALID,99.545,VALID,-0.0169808,VALID,20.3021,VALID,126,VALID,0,
2002-11-09, 01:36:00,VALID,917.506,VALID,0,VALID,99.5425,VALID,-0.0679233,VALID,20.2601,VALID,126,VALID,0.15918,
2002-11-09, 01:37:00,VALID,917.495,VALID,0,VALID,99.531,VALID,-0.0509425,VALID,20.2285,VALID,125,VALID,0.427148,
2002-11-09, 01:38:00,VALID,917.499,VALID,0,VALID,99.5247,VALID,-0.0679233,VALID,20.1798,VALID,98,VALID,0.583615,
2002-11-09, 01:39:00,VALID,917.484,VALID,0,VALID,99.5323,VALID,-0.0509425,VALID,20.154,VALID,92,VALID,0.623522,
2002-11-09, 01:40:00,VALID,917.471,VALID,0,VALID,99.5387,VALID,-0.0339617,VALID,20.1373,VALID,86,VALID,0.510352,
2002-11-09, 01:41:00,VALID,917.453,VALID,0,VALID,99.5336,VALID,-0.0509425,VALID,20.1445,VALID,84,VALID,0.569643,
2002-11-09, 01:42:00,VALID,917.446,VALID,0,VALID,99.5272,VALID,-0.0509425,VALID,20.1378,VALID,98,VALID,0.604688,
2002-11-09, 01:43:00,VALID,917.433,VALID,0,VALID,99.5387,VALID,-0.0679233,VALID,20.1152,VALID,98,VALID,0.655449,
2002-11-09, 01:44:00,VALID,917.428,VALID,0,VALID,99.5437,VALID,-0.0339617,VALID,20.1055,VALID,98,VALID,0.615337,
2002-11-09, 01:45:00,VALID,917.426,VALID,0,VALID,99.5412,VALID,-0.0509425,VALID,20.1152,VALID,108,VALID,0.541941,
2002-11-09, 01:46:00,VALID,917.415,VALID,0,VALID,99.5514,VALID,-0.0339617,VALID,20.1152,VALID,121,VALID,0.64403,
2002-11-09, 01:47:00,VALID,917.398,VALID,0,VALID,99.5501,VALID,-0.0509425,VALID,20.0953,VALID,119,VALID,0.637305,
2002-11-09, 01:48:01,VALID,917.391,VALID,0,VALID,99.5501,VALID,-0.0339617,VALID,20.1052,VALID,103,VALID,0.694079,
2002-11-09, 01:49:00,VALID,917.387,VALID,0,VALID,99.5628,VALID,-0.0339617,VALID,20.1219,VALID,140,VALID,0.527845,
2002-11-09, 01:50:00,VALID,917.368,VALID,0,VALID,99.5539,VALID,0,VALID,20.1211,VALID,148,VALID,0.351162,
2002-11-09, 01:51:00,VALID,917.349,VALID,0,VALID,99.5692,VALID,-0.0339617,VALID,20.1383,VALID,147,VALID,0.190034,
2002-11-09, 01:52:01,VALID,917.34,VALID,0,VALID,99.5603,VALID,-0.0339617,VALID,20.1117,VALID,120,VALID,0.477196,
2002-11-09, 01:53:00,VALID,917.346,VALID,0,VALID,99.5476,VALID,-0.0169808,VALID,20.1023,VALID,94,VALID,0.679883,
2002-11-09, 01:54:00,VALID,917.339,VALID,0,VALID,99.5565,VALID,-0.0509425,VALID,20.0834,VALID,93,VALID,0.413373,
2002-11-09, 01:55:00,VALID,917.333,VALID,0,VALID,99.5717,VALID,-0.0509425,VALID,20.0794,VALID,86,VALID,0.221217,
2002-11-09, 01:56:01,VALID,917.302,VALID,0,VALID,99.5692,VALID,-0.0169808,VALID,20.0985,VALID,53,VALID,0.725561,
2002-11-09, 01:57:01,VALID,917.289,VALID,0,VALID,99.5755,VALID,-0.0509425,VALID,20.0732,VALID,61,VALID,0.813902,
2002-11-09, 01:58:00,VALID,917.282,VALID,0,VALID,99.5794,VALID,-0.0169808,VALID,20.0635,VALID,70,VALID,0.76912,
2002-11-09, 01:59:00,VALID,917.258,VALID,0,VALID,99.5768,VALID,-0.0679233,VALID,20.0245,VALID,70,VALID,0.553544,
2002-11-09, 02:00:00,VALID,917.229,VALID,0,VALID,99.5781,VALID,-0.0169808,VALID,20.0183,VALID,42,VALID,0.382813,
2002-11-09, 02:01:01,VALID,917.214,VALID,0,VALID,99.5755,VALID,-0.0339617,VALID,20.0091,VALID,64,VALID,0.717272,
2002-11-09, 02:02:00,VALID,917.178,VALID,0,VALID,99.5768,VALID,-0.0169808,VALID,19.9698,VALID,86,VALID,0.595189,
2002-11-09, 02:03:01,VALID,917.177,VALID,0,VALID,99.5743,VALID,-0.0339617,VALID,19.9475,VALID,89,VALID,0.597245,
2002-11-09, 02:04:00,VALID,917.145,VALID,0,VALID,99.5666,VALID,-0.0169808,VALID,19.9144,VALID,90,VALID,0.56891,
2002-11-09, 02:05:00,VALID,917.103,VALID,0,VALID,99.5768,VALID,-0.0169808,VALID,19.9249,VALID,85,VALID,0.439503,
2002-11-09, 02:06:00,VALID,917.103,VALID,0,VALID,99.5743,VALID,-0.0339617,VALID,19.9313,VALID,75,VALID,0.304893,
2002-11-09, 02:07:00,VALID,917.067,VALID,0,VALID,99.5781,VALID,-0.0339617,VALID,19.9368,VALID,44,VALID,0.275446,
2002-11-09, 02:08:00,VALID,917.029,VALID,0,VALID,99.5844,VALID,-0.0339617,VALID,19.9733,VALID,50,VALID,0,
2002-11-09, 02:09:01,VALID,917.009,VALID,0,VALID,99.5806,VALID,-0.0679233,VALID,19.9698,VALID,52,VALID,0.209498,
2002-11-09, 02:10:00,VALID,917.003,VALID,0,VALID,99.5806,VALID,-0.0679233,VALID,19.9534,VALID,78,VALID,0.567057,
2002-11-09, 02:11:01,VALID,917.002,VALID,0,VALID,99.5844,VALID,-0.0169808,VALID,19.9413,VALID,84,VALID,0.549137,
2002-11-09, 02:12:01,VALID,916.983,VALID,0,VALID,99.5819,VALID,-0.0339617,VALID,19.9149,VALID,84,VALID,0.393359,
2002-11-09, 02:13:00,VALID,916.956,VALID,0,VALID,99.5844,VALID,-0.0169808,VALID,19.9413,VALID,42,VALID,0.461523,
2002-11-09, 02:14:00,VALID,916.927,VALID,0,VALID,99.587,VALID,-0.0679233,VALID,19.9601,VALID,22,VALID,0.517027,
2002-11-09, 02:15:00,VALID,916.926,VALID,0,VALID,99.5895,VALID,-0.0169808,VALID,19.9862,VALID,21,VALID,0.384766,
2002-11-09, 02:16:00,VALID,916.914,VALID,0,VALID,99.5895,VALID,-0.0509425,VALID,19.9929,VALID,21,VALID,0.314453,
2002-11-09, 02:17:01,VALID,916.916,VALID,0,VALID,99.5794,VALID,-0.0339617,VALID,19.9343,VALID,83,VALID,0.517525,
2002-11-09, 02:18:01,VALID,916.92,VALID,0,VALID,99.5844,VALID,-0.0169808,VALID,19.8988,VALID,114,VALID,0.403083,
2002-11-09, 02:19:00,VALID,916.906,VALID,0,VALID,99.5781,VALID,-0.0509425,VALID,19.8923,VALID,132,VALID,0.533398,
2002-11-09, 02:20:01,VALID,916.898,VALID,0,VALID,99.5755,VALID,-0.0169808,VALID,19.8727,VALID,142,VALID,0.695313,
2002-11-09, 02:21:01,VALID,916.893,VALID,0,VALID,99.5844,VALID,-0.0169808,VALID,19.8732,VALID,138,VALID,0.495703,
2002-11-09, 02:22:01,VALID,916.867,VALID,0,VALID,99.5997,VALID,-0.0339617,VALID,19.8528,VALID,138,VALID,0.776643,
2002-11-09, 02:23:00,VALID,916.859,VALID,0,VALID,99.5832,VALID,-0.0679233,VALID,19.857,VALID,144,VALID,1.09375,
2002-11-09, 02:24:00,VALID,916.403,VALID,0,VALID,99.587,VALID,-0.0339617,VALID,19.8312,VALID,146,VALID,1.13692,
2002-11-09, 02:25:00,VALID,916.807,VALID,0,VALID,99.5768,VALID,-0.0509425,VALID,19.8056,VALID,145,VALID,0.897236,
2002-11-09, 02:26:00,VALID,916.797,VALID,0,VALID,99.587,VALID,-0.0339617,VALID,19.7859,VALID,123,VALID,0.650586,
2002-11-09, 02:27:01,VALID,916.763,VALID,0,VALID,99.5921,VALID,-0.0679233,VALID,19.7666,VALID,144,VALID,0.783923,
2002-11-09, 02:28:00,VALID,916.747,VALID,0,VALID,99.5883,VALID,-0.0169808,VALID,19.7407,VALID,138,VALID,0.874199,
2002-11-09, 02:29:00,VALID,916.738,VALID,0,VALID,99.5895,VALID,-0.0509425,VALID,19.731,VALID,132,VALID,0.814103,
2002-11-09, 02:30:00,VALID,916.729,VALID,0,VALID,99.5959,VALID,0,VALID,19.7082,VALID,117,VALID,0.791807,
2002-11-09, 02:31:01,VALID,916.706,VALID,0,VALID,99.5946,VALID,-0.0509425,VALID,19.6957,VALID,93,VALID,0.861064,
2002-11-09, 02:32:00,VALID,916.688,VALID,0,VALID,99.5883,VALID,-0.0509425,VALID,19.699,VALID,50,VALID,0.692187,
2002-11-09, 02:33:01,VALID,916.68,VALID,0,VALID,99.6022,VALID,-0.0169808,VALID,19.7087,VALID,95,VALID,0.436811,
2002-11-09, 02:34:00,VALID,916.664,VALID,0,VALID,99.6073,VALID,-0.0849042,VALID,19.7022,VALID,89,VALID,0.449219,
2002-11-09, 02:35:00,VALID,916.622,VALID,0,VALID,99.6099,VALID,-0.0679233,VALID,19.7089,VALID,62,VALID,0.53105,
2002-11-09, 02:36:00,VALID,916.606,VALID,0,VALID,99.6188,VALID,-0.0679233,VALID,19.6856,VALID,68,VALID,0.561098,
2002-11-09, 02:37:00,VALID,916.586,VALID,0,VALID,99.6035,VALID,-0.0679233,VALID,19.6667,VALID,64,VALID,0.401521,
2002-11-09, 02:38:01,VALID,916.565,VALID,0,VALID,99.62,VALID,-0.0509425,VALID,19.6605,VALID,32,VALID,0.522866,
2002-11-09, 02:39:01,VALID,916.528,VALID,0,VALID,99.6124,VALID,-0.0679233,VALID,19.6639,VALID,62,VALID,0.448518,
2002-11-09, 02:40:01,VALID,916.503,VALID,0,VALID,99.6277,VALID,-0.0849042,VALID,19.6572,VALID,48,VALID,0.273226,
2002-11-09, 02:41:00,VALID,916.488,VALID,0,VALID,99.62,VALID,-0.0169808,VALID,19.6475,VALID,56,VALID,0.223684,
2002-11-09, 02:42:01,VALID,916.469,VALID,0,VALID,99.6124,VALID,-0.0339617,VALID,19.6254,VALID,56,VALID,0.263569,
2002-11-09, 02:43:00,VALID,916.469,VALID,0,VALID,99.62,VALID,-0.0679233,VALID,19.5792,VALID,77,VALID,0.511418,
2002-11-09, 02:44:00,VALID,916.458,VALID,0,VALID,99.615,VALID,-0.0509425,VALID,19.5606,VALID,77,VALID,0.276316,
2002-11-09, 02:45:00,VALID,916.473,VALID,0,VALID,99.6086,VALID,-0.0679233,VALID,19.5313,VALID,77,VALID,0.370888,
2002-11-09, 02:46:00,VALID,916.463,VALID,0,VALID,99.6226,VALID,-0.0509425,VALID,19.528,VALID,68,VALID,0.249777,
2002-11-09, 02:47:00,VALID,916.469,VALID,0,VALID,99.6264,VALID,-0.0679233,VALID,19.5472,VALID,45,VALID,0.21274,
2002-11-09, 02:48:01,VALID,916.461,VALID,0,VALID,99.6328,VALID,-0.0679233,VALID,19.5509,VALID,45,VALID,0.106086,
2002-11-09, 02:49:00,VALID,916.46,VALID,0,VALID,99.6353,VALID,-0.0679233,VALID,19.5772,VALID,45,VALID,0.093967,
2002-11-09, 02:50:01,VALID,916.466,VALID,0,VALID,99.6455,VALID,-0.0509425,VALID,19.5899,VALID,45,VALID,0.186883,
2002-11-09, 02:51:01,VALID,916.459,VALID,0,VALID,99.6429,VALID,-0.0339617,VALID,19.6093,VALID,45,VALID,0.108789,
2002-11-09, 02:52:00,VALID,916.461,VALID,0,VALID,99.6468,VALID,-0.0509425,VALID,19.6093,VALID,45,VALID,0.119336,
2002-11-09, 02:53:00,VALID,916.436,VALID,0,VALID,99.6391,VALID,0,VALID,19.5797,VALID,45,VALID,0.166667,
2002-11-09, 02:54:00,VALID,916.432,VALID,0,VALID,99.6366,VALID,-0.0169808,VALID,19.5608,VALID,45,VALID,0.197461,
2002-11-09, 02:55:00,VALID,916.417,VALID,0,VALID,99.634,VALID,-0.0509425,VALID,19.5275,VALID,60,VALID,0.32793,
2002-11-09, 02:56:00,VALID,916.406,VALID,0,VALID,99.6404,VALID,0,VALID,19.5149,VALID,127,VALID,0.464105,
2002-11-09, 02:57:00,VALID,916.39,VALID,0,VALID,99.6391,VALID,-0.0339617,VALID,19.5024,VALID,143,VALID,0.443623,
2002-11-09, 02:58:00,VALID,916.37,VALID,0,VALID,99.6378,VALID,-0.0509425,VALID,19.4895,VALID,153,VALID,0.541992,
2002-11-09, 02:59:01,VALID,916.363,VALID,0,VALID,99.6429,VALID,-0.0679233,VALID,19.4902,VALID,156,VALID,0.681473,
2002-11-09, 03:00:00,VALID,916.367,VALID,0,VALID,99.6391,VALID,-0.0339617,VALID,19.4602,VALID,153,VALID,0.713477,
2002-11-09, 03:01:00,VALID,916.367,VALID,0,VALID,99.6417,VALID,-0.0339617,VALID,19.4572,VALID,151,VALID,0.632412,
2002-11-09, 03:02:00,VALID,916.384,VALID,0,VALID,99.6366,VALID,-0.0509425,VALID,19.444,VALID,152,VALID,0.452097,
2002-11-09, 03:03:00,VALID,916.372,VALID,0,VALID,99.6455,VALID,-0.0509425,VALID,19.4344,VALID,157,VALID,0.450452,
2002-11-09, 03:04:01,VALID,916.357,VALID,0,VALID,99.6442,VALID,-0.0169808,VALID,19.4438,VALID,153,VALID,0.542668,
2002-11-09, 03:05:00,VALID,916.344,VALID,0,VALID,99.6468,VALID,0.0679233,VALID,19.4232,VALID,151,VALID,0.703516,
2002-11-09, 03:06:01,VALID,916.329,VALID,0,VALID,99.648,VALID,0.0679233,VALID,19.42,VALID,155,VALID,0.533717,
2002-11-09, 03:07:01,VALID,916.3,VALID,0,VALID,99.6582,VALID,0.0679233,VALID,19.4105,VALID,154,VALID,0.286258,
2002-11-09, 03:08:00,VALID,916.291,VALID,0,VALID,99.6556,VALID,0.101885,VALID,19.4138,VALID,154,VALID,0.364984,
2002-11-09, 03:09:01,VALID,916.26,VALID,0,VALID,99.6506,VALID,0.0339617,VALID,19.4138,VALID,149,VALID,0.39147,
2002-11-09, 03:10:01,VALID,916.242,VALID,0,VALID,99.6569,VALID,0.0679233,VALID,19.4075,VALID,131,VALID,0.329814,
2002-11-09, 03:11:00,VALID,916.24,VALID,0,VALID,99.6658,VALID,0.0679233,VALID,19.3976,VALID,108,VALID,0.554297,
2002-11-09, 03:12:01,VALID,916.221,VALID,0,VALID,99.6607,VALID,0.101885,VALID,19.3782,VALID,88,VALID,0.564338,
2002-11-09, 03:13:01,VALID,916.208,VALID,0,VALID,99.6556,VALID,0.0509425,VALID,19.3489,VALID,76,VALID,0.615132,
2002-11-09, 03:14:01,VALID,916.201,VALID,0,VALID,99.662,VALID,0.101885,VALID,19.3298,VALID,68,VALID,0.727163,
2002-11-09, 03:15:01,VALID,916.193,VALID,0,VALID,99.6633,VALID,0.0509425,VALID,19.3263,VALID,68,VALID,0.854367,
2002-11-09, 03:16:01,VALID,916.183,VALID,0,VALID,99.6658,VALID,0.0679233,VALID,19.3561,VALID,71,VALID,0.82977,
2002-11-09, 03:17:00,VALID,916.189,VALID,0,VALID,99.6722,VALID,0.0679233,VALID,19.3653,VALID,76,VALID,0.938643,
2002-11-09, 03:18:00,VALID,916.178,VALID,0,VALID,99.6696,VALID,0.0509425,VALID,19.3589,VALID,91,VALID,1.03966,
2002-11-09, 03:19:01,VALID,916.178,VALID,0,VALID,99.6696,VALID,0.0339617,VALID,19.3501,VALID,96,VALID,1.11001,
2002-11-09, 03:20:01,VALID,916.161,VALID,0,VALID,99.676,VALID,-0.0679233,VALID,19.3216,VALID,109,VALID,0.89597,
2002-11-09, 03:21:01,VALID,916.157,VALID,0,VALID,99.6798,VALID,-0.0679233,VALID,19.329,VALID,104,VALID,0.77426,
2002-11-09, 03:22:01,VALID,916.154,VALID,0,VALID,99.6938,VALID,-0.101885,VALID,19.3228,VALID,115,VALID,0.83133,
2002-11-09, 03:23:01,VALID,916.155,VALID,0,VALID,99.6798,VALID,-0.0339617,VALID,19.2828,VALID,113,VALID,0.680099,
2002-11-09, 03:24:01,VALID,916.124,VALID,0,VALID,99.6785,VALID,-0.0509425,VALID,19.2768,VALID,116,VALID,0.751234,
2002-11-09, 03:25:01,VALID,916.125,VALID,0,VALID,99.6874,VALID,-0.0849042,VALID,19.283,VALID,113,VALID,0.594866,
2002-11-09, 03:26:01,VALID,916.118,VALID,0,VALID,99.6849,VALID,-0.0679233,VALID,19.2833,VALID,109,VALID,0.584936,
2002-11-09, 03:27:01,VALID,916.121,VALID,0,VALID,99.6913,VALID,-0.0679233,VALID,19.2674,VALID,99,VALID,0.577303,
2002-11-09, 03:28:01,VALID,916.104,VALID,0,VALID,99.6849,VALID,-0.0849042,VALID,19.2706,VALID,94,VALID,0.635851,
2002-11-09, 03:29:01,VALID,916.109,VALID,0,VALID,99.6824,VALID,-0.0849042,VALID,19.2572,VALID,91,VALID,0.767681,
2002-11-09, 03:30:01,VALID,916.124,VALID,0,VALID,99.6951,VALID,-0.0509425,VALID,19.2671,VALID,90,VALID,0.849805,